This is the latest recevied weather packets stored in our database for station/object DB0OHA-13. If no packets are shown the sender has not sent any weather packets the latest 10 day(s).
| Time | Temp. | Humidity | Pressure | Rain* | Wind** | Luminosity | Snow |
|---|---|---|---|---|---|---|---|
| 1777535471 | 10.56° C | 39% | 1031.6 hPa | 0 mm | - | 515 W/m² | - |
| 1777534871 | 10.56° C | 40% | 1031.6 hPa | 0 mm | - | 493 W/m² | - |
| 1777534271 | 10° C | 38% | 1031.6 hPa | 0 mm | - | 470 W/m² | - |
| 1777533671 | 10° C | 40% | 1031.7 hPa | 0 mm | - | 445 W/m² | - |
| 1777533071 | 10° C | 39% | 1031.8 hPa | 0 mm | - | 398 W/m² | - |
| 1777532471 | 9.44° C | 41% | 1031.8 hPa | 0 mm | - | 351 W/m² | - |
| 1777531870 | 9.44° C | 41% | 1031.8 hPa | 0 mm | - | 281 W/m² | - |
| 1777531270 | 8.89° C | 42% | 1031.7 hPa | 0 mm | - | 229 W/m² | - |
| 1777530670 | 8.33° C | 45% | 1031.8 hPa | 0 mm | - | 267 W/m² | - |
| 1777530070 | 7.78° C | 50% | 1031.6 hPa | 0 mm | - | 260 W/m² | - |
| 1777529470 | 7.22° C | 52% | 1031.5 hPa | 0 mm | - | 216 W/m² | - |
| 1777528870 | 6.67° C | 55% | 1031.4 hPa | 0 mm | - | 189 W/m² | - |
| 1777528270 | 5° C | 56% | 1031.3 hPa | 0 mm | - | 119 W/m² | - |
| 1777527670 | 5° C | 56% | 1031.2 hPa | 0 mm | - | 27 W/m² | - |
| 1777527070 | 4.44° C | 58% | 1031.1 hPa | 0 mm | - | 23 W/m² | - |
| 1777526470 | 3.89° C | 59% | 1030.9 hPa | 0 mm | - | 21 W/m² | - |
| 1777525870 | 3.89° C | 59% | 1030.9 hPa | 0 mm | - | 21 W/m² | - |
| 1777525269 | 3.33° C | 58% | 1030.7 hPa | 0 mm | - | 18 W/m² | - |
| 1777524669 | 3.33° C | 59% | 1030.8 hPa | 0 mm | - | 18 W/m² | - |
| 1777522874 | 3.33° C | 58% | 1030.4 hPa | 0 mm | - | 11 W/m² | - |
| 1777521074 | 3.33° C | 58% | 1030.4 hPa | 0 mm | - | 0 W/m² | - |
| 1777520474 | 3.33° C | 59% | 1030.3 hPa | 0 mm | - | 0 W/m² | - |
| 1777519874 | 3.89° C | 58% | 1030.3 hPa | 0 mm | - | 0 W/m² | - |
| 1777519274 | 3.89° C | 57% | 1030.3 hPa | 0 mm | - | 0 W/m² | - |
| 1777518674 | 3.89° C | 57% | 1030.4 hPa | 0 mm | - | 0 W/m² | - |
* Rain latest hour (hover to see other rain measurements)
** Current wind speed in m/s (hover to see current wind gust speed)